Regional Weather Roundup
Issued by NWS Sterling, VA

Home | Current Version | Previous Version | Text Only | Print | Product List | Glossary On
Versions: 1 2 3 4 5 6 7 8 9 10 11 12 13 14 15 16 17 18 19 20 21 22 23 24 25 26 27 28 29 30 31 32 33 34 35 36 37 38 39 40 41 42 43 44 45 46 47 48 49 50
000
ASUS41 KLWX 200811
RWRLWX

REGIONAL WEATHER ROUNDUP
NATIONAL WEATHER SERVICE BALTIMORE MD/WASHINGTON DC
400 AM EDT SUN AUG 20 2017

Note: "FAIR" indicates few or no clouds below 12,000 feet
with no significant weather and/or obstructions to visibility.
 TC=TEMPERATURE CELSIUS

 * =Non NWS site. Station does not report precipitation (e.g. rain,
    snow, etc.), thunder, or fog.

DCZ001-MDZ009-015-VAZ040>042-051-053>054-200900-
WASHINGTON METRO

CITY           SKY/WX    TMP DP  RH WIND       PRES   REMARKS
WASHINGTON NAT CLEAR     73  63  70 W3        30.02R
DULLES         CLEAR     70  63  78 N7        30.02R
ANDREWS AFB    CLEAR     67  65  96 NW3       30.01R
FT BELVOIR     CLEAR     67  66  94 CALM      30.01R
QUANTICO       CLEAR     71  69  93 NW7       30.02R
COLLEGE PARK*  CLEAR     67  62  86 CALM      30.01R
LEESBURG*      CLEAR     68  64  88 CALM      30.04R
MANASSAS*      CLEAR     66  65  96 N6        30.02
GAITHERSBURG*  CLEAR     63  61  93 CALM      30.05R

$$

MDZ006>007-011-014-200900-
BALTIMORE METRO

CITY           SKY/WX    TMP DP  RH WIND       PRES   REMARKS
BWI AIRPORT    PTCLDY    67  62  84 NW3       30.01R
MD SCIENCE CTR   N/A     72  61  68 MISG      30.02R
MARTIN STATE   PTCLDY    68  64  88 W3        30.03R
ANNAPOLIS      CLEAR     76  67  73 NW6       30.00R
FORT MEADE*    CLEAR     63  63 100 CALM      30.04R

$$

MDZ012-015-019>023-200900-
MARYLAND EASTERN SHORE

CITY           SKY/WX    TMP DP  RH WIND       PRES   REMARKS
OCEAN CITY     CLEAR     71  69  93 NW6       29.99R
SALISBURY      CLEAR     70  70 100 CALM      29.99S
BAY BRIDGE AP* CLEAR     73  63  68 NW6       30.01R
CAMBRIDGE*     CLOUDY    70  70 100 CALM      30.00R
EASTON*        PTCLDY    70  67  90 CALM      30.04R

$$

MDZ017>025-200900-
SOUTHERN MARYLAND

CITY           SKY/WX    TMP DP  RH WIND       PRES   REMARKS
PATUXENT RIVER CLOUDY    72  71  97 W3        30.00R
ST INIGOES     PTCLDY    72  70  93 CALM      29.99R
LEONARDTOWN*   CLOUDY    70  66  88 CALM      30.02S

$$

MDZ003>005-200900-
NORTH CENTRAL MARYLAND

CITY           SKY/WX    TMP DP  RH WIND       PRES   REMARKS
FREDERICK*     PTCLDY    64  64 100 CALM      30.06R FOG
HAGERSTOWN APT CLEAR     64  61  90 CALM      30.05R
WESTMINSTER*   CLEAR     64  63  94 CALM      30.04S

$$

MDZ501>502-200900-
WESTERN MARYLAND

CITY           SKY/WX    TMP DP  RH WIND       PRES   REMARKS
OAKLAND*         N/A     59  55  88 W3        30.12R
CUMBERLAND*    CLEAR     63  61  94 CALM      30.10R

$$

VAZ025>031-200900-
SHENANDOAH VALLEY

CITY           SKY/WX    TMP DP  RH WIND       PRES   REMARKS
WINCHESTER*    CLEAR     59  59 100 CALM      30.05R
FRONT ROYAL*   PTCLDY    63  63 100 CALM      30.05R
LURAY*         CLOUDY    63  63 100 CALM      30.06R FOG
NEW MARKET*    CLEAR     63  62  96 CALM      30.06R
STAUNTON*      CLEAR     61  59  94 CALM      30.09R
WAYNESBORO*    CLEAR     64  63  98 CALM      30.08R

$$

WVZ021-048>050-054>055-200900-
EASTERN WEST VIRGINIA PANHANDLE

CITY           SKY/WX    TMP DP  RH WIND       PRES   REMARKS
MARTINSBURG    CLEAR     61  60  97 CALM      30.04R
PETERSBURG*    PTCLDY    65  64  94 CALM      30.07S

$$

VAZ036>039-050-200900-
CENTRAL FOOTHILLS

CITY           SKY/WX    TMP DP  RH WIND       PRES   REMARKS
CHARLOTTESVILL CLEAR     69  66  90 CALM      30.03R
CULPEPER*      PTCLDY    65  65  99 CALM      30.04R
ORANGE*        CLEAR     64  63  94 CALM      30.03R FOG
GORDONSVILLE*  CLEAR     65  65 100 CALM      30.02S
WARRENTON*     FOG       64  61  91 CALM      30.02R VSB 1/2

$$

VAZ055>057-200900-
NORTH AND CENTRAL PIEDMONT

CITY           SKY/WX    TMP DP  RH WIND       PRES   REMARKS
FREDERICKSBRG* CLEAR     68  66  93 CALM      30.01R
STAFFORD*      CLEAR     64  64 100 CALM      30.06R

$$

NCZ024-NYZ072-PAZ021-071-VAZ022-071-200900-
OTHER REGIONAL OBSERVATIONS

CITY           SKY/WX    TMP DP  RH WIND       PRES   REMARKS
NEW YORK CITY  CLEAR     72  62  71 W7        29.96R
PHILADELPHIA   CLEAR     70  59  68 W8        29.99R
PITTSBURGH     FOG       60  60 100 S3        30.08R VSB 1/2
ROANOKE        CLEAR     70  65  84 NE3       30.08R
RICHMOND       CLEAR     71  70  96 SE6       29.99S
RALEIGH        PTCLDY    73  71  93 CALM      30.02S

$$

ANZ530>537-200900-
MARINE OBSERVATIONS

STATION/POSITION TIME  TEMP    WIND        PRES
                       AIR SEA DIR/SP/G
                 (UTC) (F)     (DEG/KT/KT) (MB)
THOMAS PT LIGHT  0800   74 80  310/  7/  9   N/A
BALT KEY BRIDGE  0742   73     290/  8/  9 1015.9R
COVE POINT       0742   75     320/  3/  5 1016.4R
LEWISETTA        0742   77 83  270/  1/  2 1015.6R
SOLOMONS ISLAND  0742   75 82  320/  3/  4   N/A
PINEY POINT      0736           60/  5/  7   N/A

$$




USA.gov is the U.S. government's official web portal to all federal, state and local government web resources and services.